DELTA 1 DEB, 7135

Orbit data source: Space-Track

DELTA 1 DEB, 7135 is space debris in SSO originally from a launch on Tue, 06 Nov 1973 UTC launched from the Air Force Western Test Range (AFWTR). Debris objects in space refer to the collection of defunct objects orbiting the Earth. Examples of debris include non-operational satellites, rocket bodies, and fragments generated from explosions, collisions, or faulty payload assembly.

Loading next visibility...
Identifier
7135, 1973-086CZ
Orbit
SSO
Country
Flag of USUS
Related business
Manufacturer
Unknown
Mission
Spacecraft
Bus & Motor
Unknown
Mass
Unknown
Launch date (UTC)
1973-11-06 (53 years ago)
Launch vehicle
Unknown
Launch site
Air Force Western Test Range (AFWTR)
Object type
Payload
Rocket body
Debris
Shape & HBR
Unknown shape, 0.2 m
Radar Cross Section
Medium (>0.1 m² and <1 m²)

Expand to show TLE details & history
Last TLE update: 1 day ago

TLE from 1 day ago
0 DELTA 1 DEB
1 07135U 73086CZ  26206.19001841  .00000844  00000-0  46863-2 0  9995
2 07135 102.2330 178.4970 0138946 336.4500  23.0257 12.64238519418415
Epoch: 2026-07-25T04:33Z
TLE epoch observation values (Epoch: 2026-07-25T04:33:37.590Z)
Latitude
0.00001°
Longitude
167.18451°
Altitude
1,308.757 km
Speed
7.248 km/s
True Right ascension
11h 53m 59s
True Declination
0° 00' 00"
Sunlit
Object was in daylight at epoch
Visualization orbit readout
Latitude
Unknown
Longitude
Unknown
Altitude
Unknown
Speed
Unknown
Apparent Right ascension
Unknown
Apparent Declination
Unknown
Sunlit
N/A
Visualization observer readout
Local Sidereal Time
23:17:42
Azimuth
Unknown
Elevation
Unknown
Doppler factor
Unknown
Orbital elements
Apogee altitude
1,511.172 km
Perigee altitude
1,294.939 km
Semi-major axis
7,781.192 km
Eccentricity
0.01389
Inclination
102.233°
RAAN
178.497°
Arg. of periapsis
336.45°
True anomaly
23.65858°
Mean anomaly
23.0257°
Eccentric anomaly
23.34112°
Mean motion
3.16209 °/min
Orbital period
113.85 mins
BSTAR
0.0046863
Loading maneuver chart data...
Computing Atmospheric mass density...
Loading historical data...
Loading historical data...
Loading historical data...
Loading historical data...
Loading historical data...
Loading historical data...
Loading historical data...

Documentation

Showing up to 5 results
|